Wind_Speed
10 11 12 13 14 15 15 14 15 17 16 16 17 18 18 18 18 19 19 20 21 20 20 21 21 21 23 23 23 24 24 24 24 25 25 25 26 26 27 27 28 29 29 28
10 11 12 12 12 12 12 13 14 15 15 15 15 16 17 17 18 18 18 18 19 19 19 20 20 21 22 22 23 24 25 26 26 26 26 26 27 27 28 28 29 28 28 29
10 11 10 10 10 11 11 12 14 14 14 14 14 15 16 16 16 17 17 17 18 19 20 20 20 20 21 22 22 23 24 26 26 26 26 26 27 27 28 29 29 29 29 29
10 9 9 9 10 10 11 12 14 14 12 13 12 12 16 15 16 16 17 17 18 19 20 20 21 21 22 22 23 24 24 25 25 26 26 26 27 28 28 29 29 29 30 30
9 9 9 10 10 10 11 11 12 13 12 13 13 11 15 16 17 18 19 19 19 20 21 21 22 22 22 23 23 24 24 25 26 26 27 27 27 28 28 29 28 28 29 30
8 9 10 10 10 10 10 10 11 11 11 12 12 11 13 15 17 17 18 19 20 21 21 21 21 22 23 24 24 25 25 25 26 26 27 27 27 28 28 28 28 28 29 30
8 9 10 10 10 10 10 8 7 8 9 11 13 12 13 15 16 17 18 19 19 21 21 22 22 23 24 25 26 26 27 26 26 26 27 27 28 28 28 29 29 29 29 29
8 9 10 11 11 11 10 9 9 10 10 11 14 13 15 15 16 17 17 18 19 20 22 22 23 24 25 25 26 26 27 27 27 27 28 28 29 29 29 29 30 29 29 29
10 12 11 11 11 12 11 11 11 11 11 11 13 15 16 16 17 17 18 18 18 19 21 22 23 23 24 24 25 25 26 27 28 29 29 28 29 29 29 30 30 31 31 31
11 12 12 11 12 12 13 13 12 11 12 12 13 15 15 15 16 17 17 17 18 19 20 21 21 22 23 24 24 25 26 26 27 28 28 28 29 30 30 30 30 30 31 30
12 12 12 12 12 13 13 14 14 13 13 12 12 14 15 15 16 16 17 18 19 20 21 21 22 22 22 23 24 24 25 26 27 27 28 28 28 29 29 30 30 30 30 29
13 12 12 13 13 13 14 14 13 13 13 13 13 15 17 16 17 17 18 19 20 21 21 21 22 22 23 23 24 24 25 25 26 26 26 26 26 27 28 28 28 28 28 28
14 13 12 13 13 14 14 13 14 14 14 14 14 16 18 17 18 18 19 20 21 21 22 22 22 23 23 23 23 24 24 25 24 25 25 25 25 25 26 26 26 26 26 26
15 14 13 13 14 14 14 15 15 14 14 15 16 17 18 18 19 19 20 21 22 22 23 23 23 23 24 24 24 24 24 24 24 24 24 23 23 23 22 22 22 23 24 25
14 15 15 15 15 14 14 15 16 15 15 16 17 18 18 18 19 20 20 20 21 22 23 23 23 23 23 24 24 23 23 23 23 23 22 22 21 21 20 20 20 21 21 23
12 13 14 15 15 15 15 15 15 16 16 16 17 17 18 18 19 20 20 21 22 22 22 22 23 23 23 22 22 22 22 21 21 21 20 20 19 19 18 18 19 19 19 19
12 12 13 13 13 13 14 13 13 14 15 16 16 16 17 18 19 19 20 21 22 22 22 22 22 21 21 20 20 19 20 19 19 18 18 17 16 15 15 15 15 16 17 17
11 11 11 11 12 13 12 12 13 13 14 14 15 15 16 17 18 18 19 20 21 21 21 21 21 20 19 18 18 18 18 17 17 16 16 15 14 13 13 12 12 12 13 13
10 10 10 10 11 13 13 12 12 12 13 13 14 15 16 17 17 18 19 20 20 20 20 20 19 18 17 16 16 16 15 15 14 14 13 12 12 11 10 10 10 9 10 10
9 9 10 10 10 12 13 13 12 11 13 13 14 15 15 16 17 18 18 19 19 19 19 19 17 16 16 15 14 13 12 12 12 11 11 10 9 9 8 8 8 8 7 7
7 8 9 10 11 13 13 12 11 11 12 13 14 14 15 16 16 17 18 19 19 18 18 17 16 15 14 13 11 10 10 10 9 9 8 8 7 7 6 6 5 5 5 5
6 7 8 9 11 12 11 11 11 11 12 13 13 14 14 15 16 17 17 18 18 17 15 14 13 12 10 10 8 8 8 8 7 7 6 6 5 5 4 4 3 3 3 3
7 7 8 9 9 10 9 10 10 11 11 12 12 13 14 15 16 16 16 17 16 14 13 12 11 9 8 7 6 6 5 5 5 5 5 4 2 1 1 1 1 1 1 1
7 7 7 7 8 8 9 9 10 10 11 11 12 13 14 15 15 15 14 14 13 12 10 9 8 7 6 5 4 4 4 4 5 4 4 3 3 3 3 4 4 3 3 4
8 7 6 6 6 7 8 9 9 10 10 11 11 12 13 13 13 13 12 11 11 9 8 7 6 6 5 4 4 4 4 5 5 5 6 6 6 7 7 7 7 7 6 6
7 6 6 6 6 6 7 8 8 9 9 10 10 11 11 12 11 10 10 9 9 8 6 6 6 6 5 5 5 6 6 6 7 8 9 9 9 9 9 9 9 8 8 8
Wind_Direction
224 219 218 218 215 217 219 220 227 235 236 235 238 243 248 254 260 262 263 264 265 268 268 268 269 270 270 271 272 271 270 268 269 269 270 268 266 265 264 263 262 261 259 258
224 222 221 220 219 220 221 222 230 237 237 240 246 251 255 259 263 265 265 264 266 268 269 270 271 271 271 272 274 274 271 269 269 269 269 268 267 266 264 264 263 261 261 259
217 223 219 217 217 218 220 219 228 237 242 248 254 261 261 262 264 266 265 264 265 268 271 273 272 272 274 274 274 275 273 270 268 269 269 269 268 267 265 264 263 263 262 259
221 219 214 213 213 211 221 225 232 239 244 255 257 265 267 263 263 265 266 267 267 269 273 274 273 273 274 275 276 277 275 274 272 270 268 268 267 266 266 265 265 266 264 263
217 211 209 209 211 212 222 231 237 243 247 255 262 260 269 267 265 266 268 269 270 272 276 276 275 275 274 276 277 278 276 277 274 272 270 269 268 268 266 266 267 267 265 263
216 214 216 215 215 220 228 236 244 249 254 258 260 263 269 272 272 271 271 272 273 274 277 277 277 276 276 278 279 279 278 279 277 274 272 271 270 269 267 266 267 266 264 262
220 220 223 223 226 230 232 234 250 258 258 258 264 267 264 272 275 274 273 273 275 277 279 279 280 280 280 281 280 280 279 279 278 277 274 273 271 270 268 266 266 266 265 263
217 228 228 227 228 233 234 231 234 244 253 260 274 272 272 276 278 279 278 276 277 279 281 282 283 282 283 283 282 282 279 277 276 276 275 274 272 271 270 269 267 266 265 264
219 227 233 235 236 237 243 242 243 251 259 267 271 274 277 277 279 282 282 281 281 283 285 286 287 287 285 285 285 285 282 279 277 276 274 272 272 271 271 269 267 267 266 266
224 230 240 243 243 244 245 251 258 260 262 265 273 280 279 281 284 284 284 285 284 285 287 289 290 290 288 288 288 287 285 281 279 276 273 273 272 272 271 269 268 267 267 267
227 231 238 241 238 246 253 259 260 259 257 263 273 275 279 285 287 287 285 285 288 289 290 291 291 291 291 292 292 290 288 285 282 280 278 276 275 274 272 270 269 268 267 266
230 231 235 242 245 248 255 258 261 262 266 267 270 277 281 286 289 291 290 290 293 293 293 293 292 292 293 293 294 293 290 288 286 285 283 281 278 275 273 271 269 267 266 265
233 235 241 252 257 255 255 259 261 260 263 270 277 281 284 287 290 292 292 293 296 295 294 293 293 293 294 294 294 293 293 292 289 287 285 283 280 276 274 272 271 268 266 263
236 237 238 241 249 252 256 260 262 263 266 274 277 278 284 287 290 292 292 294 295 296 296 296 295 295 295 295 295 295 295 294 293 290 287 285 281 279 277 273 270 268 266 264
241 242 243 246 250 252 258 262 265 266 266 271 277 280 283 287 290 293 294 295 297 298 298 296 295 297 296 295 296 296 296 295 294 293 291 287 281 278 276 273 271 270 267 263
243 244 249 254 255 256 262 264 266 267 267 272 277 280 284 289 293 295 296 299 301 302 301 298 298 297 296 297 297 297 297 296 296 294 291 289 284 278 276 275 273 270 266 264
246 247 252 256 257 261 264 264 266 268 270 273 279 284 288 291 295 297 300 301 303 305 305 303 301 299 299 299 299 299 298 297 297 295 294 291 290 285 281 278 275 270 266 266
250 250 252 255 257 260 265 266 268 270 274 277 281 287 293 296 299 301 303 304 305 306 305 305 303 301 301 300 301 300 299 298 298 298 295 294 294 289 284 281 278 275 271 269
249 247 249 255 259 261 264 268 271 274 277 281 286 291 294 298 301 304 306 308 309 309 307 307 306 305 303 302 301 301 301 302 302 301 298 293 293 289 287 284 280 276 271 269
248 246 247 253 258 261 261 267 272 276 279 283 289 293 297 301 303 305 308 312 314 313 312 313 311 308 308 307 306 305 306 307 306 303 301 298 297 295 289 282 280 275 274 272
245 246 249 254 257 261 264 269 272 275 280 287 292 297 300 302 304 308 311 314 315 316 315 315 314 311 310 310 309 310 312 314 313 308 305 301 299 296 286 273 270 271 268 263
244 249 253 257 258 260 264 269 272 277 283 288 293 298 302 305 308 311 313 315 317 318 318 318 317 315 314 312 312 317 319 322 324 323 321 313 303 294 284 271 273 271 260 262
253 254 257 260 262 260 260 268 277 283 288 292 294 301 307 311 314 316 317 320 322 323 323 325 325 322 321 322 323 327 329 331 333 337 342 343 344 328 330 5 48 88 124 130
260 261 268 267 263 258 260 271 278 285 291 295 299 305 311 316 319 322 324 325 328 330 332 336 338 336 338 343 348 356 357 354 356 1 11 30 52 72 83 85 90 91 95 104
266 268 269 267 267 263 265 272 279 291 296 298 304 310 315 320 322 325 330 335 340 343 344 352 0 6 12 17 28 33 31 34 40 48 61 69 78 84 85 86 87 88 91 95
273 266 261 262 269 266 266 271 285 297 302 307 311 313 318 325 328 334 341 349 354 359 9 19 25 29 38 49 56 55 59 63 67 70 73 77 80 82 84 87 89 90 92 92
Height
5815 5818 5820 5822 5824 5827 5829 5831 5833 5834 5835 5838 5839 5839 5841 5841 5842 5843 5843 5843 5842 5842 5842 5841 5841 5840 5840 5839 5838 5838 5837 5837 5836 5835 5835 5835 5834 5833 5833 5833 5833 5833 5833 5834
5814 5816 5818 5819 5822 5824 5827 5829 5830 5831 5833 5835 5836 5837 5837 5838 5838 5838 5838 5838 5838 5837 5837 5836 5836 5835 5834 5833 5832 5831 5830 5830 5829 5829 5828 5828 5827 5827 5826 5826 5826 5826 5826 5826
5813 5814 5816 5818 5820 5822 5825 5828 5829 5829 5831 5832 5833 5834 5834 5834 5834 5834 5834 5833 5833 5832 5832 5831 5830 5829 5829 5828 5826 5825 5824 5823 5822 5822 5821 5821 5820 5820 5819 5819 5819 5819 5819 5819
5810 5812 5814 5816 5818 5820 5823 5824 5826 5827 5829 5830 5831 5833 5830 5830 5830 5830 5830 5829 5828 5828 5827 5826 5825 5824 5823 5822 5821 5819 5818 5817 5816 5815 5814 5814 5813 5813 5812 5812 5812 5812 5812 5812
5809 5811 5813 5815 5817 5818 5820 5822 5823 5824 5826 5828 5828 5829 5828 5826 5826 5826 5825 5824 5823 5822 5821 5820 5819 5818 5817 5816 5814 5813 5811 5810 5809 5808 5807 5807 5806 5806 5805 5805 5805 5804 5804 5804
5808 5809 5811 5813 5814 5816 5818 5820 5821 5822 5824 5825 5825 5825 5826 5822 5821 5821 5820 5819 5818 5817 5815 5814 5813 5812 5811 5809 5808 5807 5805 5804 5802 5801 5801 5800 5799 5799 5798 5798 5797 5797 5797 5797
5807 5808 5810 5811 5813 5815 5816 5819 5821 5822 5823 5823 5821 5821 5821 5818 5817 5816 5815 5814 5812 5811 5810 5808 5807 5806 5804 5803 5801 5800 5798 5797 5796 5794 5794 5793 5792 5791 5791 5790 5790 5790 5790 5790
5807 5808 5808 5809 5811 5813 5814 5816 5820 5821 5821 5820 5817 5816 5816 5813 5812 5811 5810 5808 5807 5806 5804 5802 5800 5799 5798 5796 5794 5792 5791 5790 5788 5787 5786 5786 5785 5784 5783 5783 5783 5783 5783 5783
5805 5807 5806 5807 5808 5810 5811 5813 5814 5815 5815 5816 5815 5812 5811 5809 5807 5806 5805 5803 5802 5800 5799 5797 5795 5793 5791 5789 5787 5785 5784 5782 5781 5780 5778 5778 5777 5776 5776 5776 5776 5776 5775 5775
5801 5803 5804 5805 5806 5807 5808 5809 5810 5811 5812 5812 5812 5809 5808 5805 5803 5802 5800 5798 5797 5795 5793 5791 5789 5787 5785 5783 5781 5778 5776 5775 5773 5771 5770 5770 5769 5769 5768 5768 5768 5768 5768 5767
5798 5800 5802 5802 5803 5805 5805 5806 5806 5807 5807 5808 5808 5808 5803 5801 5799 5797 5795 5794 5792 5790 5788 5786 5784 5781 5779 5776 5774 5772 5769 5767 5766 5764 5763 5762 5761 5761 5760 5760 5760 5760 5760 5760
5795 5797 5799 5799 5799 5800 5801 5801 5802 5803 5803 5802 5803 5804 5798 5796 5794 5793 5791 5789 5787 5785 5782 5780 5778 5775 5773 5770 5768 5765 5763 5761 5759 5757 5756 5754 5753 5753 5752 5752 5752 5752 5752 5752
5792 5794 5796 5797 5798 5798 5797 5797 5798 5798 5799 5798 5799 5800 5793 5792 5790 5788 5786 5784 5782 5779 5777 5774 5772 5769 5767 5764 5762 5759 5757 5754 5752 5751 5749 5748 5746 5746 5745 5744 5744 5744 5744 5744
5788 5790 5792 5794 5793 5793 5793 5794 5793 5794 5794 5794 5794 5793 5790 5787 5785 5783 5781 5779 5776 5774 5771 5768 5765 5763 5760 5758 5755 5753 5751 5748 5746 5744 5743 5741 5740 5739 5738 5737 5737 5737 5737 5737
5784 5786 5787 5788 5788 5789 5789 5790 5790 5790 5790 5789 5789 5787 5785 5783 5781 5779 5776 5774 5771 5768 5765 5762 5759 5757 5754 5752 5749 5747 5745 5742 5740 5738 5736 5735 5733 5732 5732 5731 5731 5730 5730 5730
5780 5781 5783 5784 5784 5785 5785 5786 5785 5785 5785 5784 5783 5782 5779 5778 5776 5774 5771 5769 5766 5763 5760 5756 5753 5751 5748 5746 5743 5741 5739 5736 5734 5732 5730 5729 5727 5726 5726 5725 5725 5724 5724 5724
5776 5778 5779 5780 5781 5781 5782 5782 5781 5781 5780 5780 5779 5778 5775 5773 5771 5769 5766 5764 5760 5757 5754 5751 5748 5745 5743 5740 5738 5736 5733 5731 5729 5727 5725 5724 5722 5721 5720 5720 5719 5719 5719 5719
5773 5774 5775 5777 5778 5778 5780 5778 5777 5777 5776 5775 5774 5773 5771 5769 5767 5764 5762 5759 5755 5752 5749 5746 5743 5740 5737 5735 5733 5731 5729 5726 5724 5723 5721 5719 5718 5717 5716 5715 5715 5715 5715 5715
5770 5771 5772 5773 5774 5774 5775 5774 5773 5773 5772 5771 5770 5769 5767 5764 5762 5760 5757 5754 5751 5747 5744 5741 5738 5735 5733 5730 5728 5726 5724 5722 5721 5719 5717 5715 5714 5713 5712 5712 5712 5711 5711 5711
5766 5768 5769 5770 5771 5771 5772 5770 5770 5771 5769 5767 5766 5764 5762 5760 5758 5756 5752 5749 5746 5742 5739 5736 5733 5731 5729 5727 5724 5723 5721 5719 5717 5716 5714 5712 5711 5710 5709 5709 5709 5709 5709 5708
5764 5765 5766 5766 5767 5767 5767 5767 5767 5768 5766 5764 5762 5760 5758 5756 5754 5752 5748 5745 5742 5738 5735 5732 5730 5727 5725 5723 5721 5720 5718 5716 5715 5713 5711 5710 5709 5708 5707 5707 5707 5706 5706 5706
5762 5763 5763 5763 5764 5766 5764 5763 5764 5763 5761 5760 5758 5757 5755 5752 5750 5747 5744 5741 5738 5735 5732 5729 5726 5724 5723 5721 5719 5718 5716 5714 5713 5711 5709 5708 5707 5706 5706 5705 5705 5705 5705 5705
5760 5761 5760 5761 5762 5761 5760 5760 5760 5759 5758 5756 5755 5753 5751 5749 5746 5744 5741 5738 5735 5732 5729 5726 5724 5722 5720 5719 5717 5716 5715 5713 5712 5710 5709 5707 5706 5705 5705 5705 5704 5704 5705 5705
5758 5758 5758 5758 5758 5758 5758 5757 5757 5756 5755 5753 5752 5750 5749 5746 5743 5741 5738 5735 5732 5729 5727 5725 5723 5721 5719 5718 5717 5715 5714 5713 5711 5710 5709 5707 5706 5706 5705 5705 5705 5705 5705 5705
5756 5756 5756 5756 5756 5755 5755 5755 5754 5753 5752 5751 5749 5748 5746 5743 5741 5738 5736 5733 5730 5728 5726 5724 5722 5720 5719 5717 5716 5715 5714 5713 5712 5711 5709 5708 5708 5707 5706 5706 5706 5706 5706 5706
5753 5754 5754 5754 5754 5753 5753 5752 5752 5751 5750 5749 5747 5746 5744 5741 5739 5737 5734 5732 5730 5727 5725 5724 5722 5721 5719 5718 5717 5716 5715 5714 5713 5712 5711 5710 5709 5709 5708 5708 5708 5708 5708 5708